Date String (YYYY-MM-DD hh:mm:ss) UTC,Instrument flags,Ambient pressure (hPa),Sample flow (lpm),Bypass flow (lpm),Sample temperature (°C),Ambient temperature (°C),ASC tube jacket temperature (°C),LED temperature (°C),Box temperature (°C),Sample RH (%),Span deviation,Mass concentration (μg/m³),Mass concentration (μg/m³),Mass concentration (μg/m³)
DateTimeUTC,F1_M11,P_M11,Q1_M11,Q2_M11,T1_M11,T2_M11,T3_M11,T4_M11,T5_M11,U1_M11,ZSPAN_M11,X2_M11,X0_M11,X1_M11
2022-09-27 07:00:00,,0833.5,4.99,0.00,30.7,29.2,00.0,39.4,32.4,14.3,0000.0,0004.04,0008.16,0003.56
2022-09-27 07:01:00,,0833.5,5.00,0.00,30.7,29.2,00.0,39.4,32.5,14.6,0000.0,0004.03,0008.25,0003.56
2022-09-27 07:02:00,,0833.4,4.99,0.00,30.7,29.2,00.0,39.4,32.5,14.4,0000.0,0004.03,0008.29,0003.56
2022-09-27 07:03:00,,0833.4,5.01,0.00,30.7,29.2,00.0,39.4,32.5,14.3,0000.0,0004.04,0008.23,0003.57
2022-09-27 07:04:00,,0833.4,4.99,0.00,30.7,29.2,00.0,39.4,32.5,14.2,0000.0,0004.06,0009.51,0003.59
2022-09-27 07:05:00,,0833.4,5.01,0.00,30.7,29.2,00.0,39.4,32.4,14.3,0000.0,0004.12,0010.07,0003.59
2022-09-27 07:06:00,,0833.4,4.99,0.00,30.7,29.2,00.0,39.4,32.5,14.2,0000.0,0004.18,0010.25,0003.58
2022-09-27 07:07:00,,0833.4,5.00,0.00,30.7,29.2,00.0,39.4,32.5,14.3,0000.0,0004.23,0010.17,0003.60
2022-09-27 07:08:00,,0833.4,4.99,0.00,30.7,29.2,00.0,39.4,32.5,14.2,0000.0,0004.21,0010.89,0003.60
2022-09-27 07:09:00,,0833.4,5.00,0.00,30.7,29.2,00.0,39.4,32.5,14.1,0000.0,0004.22,0010.95,0003.60
2022-09-27 07:10:00,,0833.4,5.01,0.00,30.7,29.2,00.0,39.4,32.5,14.2,0000.0,0004.23,0011.03,0003.60
2022-09-27 07:11:00,,0833.4,4.99,0.00,30.7,29.2,00.0,39.4,32.5,14.3,0000.0,0004.21,0011.01,0003.60
2022-09-27 07:12:00,,0833.4,5.01,0.00,30.7,29.2,00.0,39.4,32.5,14.2,0000.0,0004.21,0010.94,0003.60
2022-09-27 07:13:00,,0833.4,5.00,0.00,30.7,29.2,00.0,39.4,32.5,14.1,0000.0,0004.21,0011.45,0003.60
2022-09-27 07:14:00,,0833.4,4.99,0.00,30.7,29.2,00.0,39.4,32.5,14.5,0000.0,0004.20,0011.69,0003.60
2022-09-27 07:15:00,,0833.5,5.01,0.00,30.7,29.2,00.0,39.5,32.5,14.2,0000.0,0004.17,0010.36,0003.59
2022-09-27 07:16:00,,0833.4,4.99,0.00,30.7,29.2,00.0,39.5,32.5,14.2,0000.0,0004.15,0010.00,0003.59
2022-09-27 07:17:00,,0833.4,5.01,0.00,30.7,29.2,00.0,39.5,32.5,14.2,0000.0,0004.10,0009.88,0003.59
2022-09-27 07:18:00,,0833.4,4.99,0.00,30.7,29.2,00.0,39.5,32.5,14.2,0000.0,0004.06,0009.81,0003.59
2022-09-27 07:19:00,,0833.4,5.00,0.00,30.7,29.2,00.0,39.5,32.5,14.3,0000.0,0004.07,0008.96,0003.59
2022-09-27 07:20:00,,0833.4,4.98,0.00,30.7,29.2,00.0,39.5,32.5,14.2,0000.0,0004.08,0008.83,0003.60
2022-09-27 07:21:00,,0833.5,5.01,0.00,30.7,29.2,00.0,39.5,32.5,14.2,0000.0,0004.08,0009.01,0003.60
2022-09-27 07:22:00,,0833.5,5.01,0.00,30.7,29.2,00.0,39.5,32.5,14.1,0000.0,0004.08,0009.35,0003.61
2022-09-27 07:23:00,,0833.5,5.00,0.00,30.7,29.2,00.0,39.5,32.5,14.1,0000.0,0004.07,0009.34,0003.60
2022-09-27 07:24:00,,0833.4,5.00,0.00,30.7,29.2,00.0,39.5,32.5,14.0,0000.0,0004.05,0009.10,0003.60
2022-09-27 07:25:00,,0833.5,5.01,0.00,30.7,29.2,00.0,39.5,32.5,14.2,0000.0,0004.06,0008.89,0003.59
2022-09-27 07:26:00,,0833.4,4.99,0.00,30.7,29.2,00.0,39.5,32.5,14.2,0000.0,0004.08,0008.87,0003.58
2022-09-27 07:27:00,,0833.4,5.01,0.00,30.7,29.2,00.0,39.5,32.5,14.1,0000.0,0004.05,0008.74,0003.58
2022-09-27 07:28:00,,0833.4,5.00,0.00,30.7,29.2,00.0,39.5,32.5,14.0,0000.0,0004.03,0008.77,0003.57
2022-09-27 07:29:00,,0833.4,4.99,0.00,30.7,29.2,00.0,39.5,32.5,14.0,0000.0,0004.05,0008.85,0003.58
2022-09-27 07:30:00,,0833.4,5.01,0.00,30.7,29.2,00.0,39.5,32.5,14.1,0000.0,0004.04,0008.71,0003.56
2022-09-27 07:31:00,,0833.4,4.99,0.00,30.7,29.2,00.0,39.5,32.5,14.1,0000.0,0004.03,0008.33,0003.56
2022-09-27 07:32:00,,0833.5,5.01,0.00,30.7,29.2,00.0,39.5,32.5,14.2,0000.0,0004.01,0008.10,0003.55
2022-09-27 07:33:00,,0833.4,5.01,0.00,30.7,29.2,00.0,39.5,32.5,14.2,0000.0,0004.01,0007.97,0003.54
2022-09-27 07:34:00,,0833.4,4.99,0.00,30.7,29.2,00.0,39.5,32.5,14.1,0000.0,0004.02,0008.72,0003.54
2022-09-27 07:35:00,,0833.5,5.00,0.00,30.7,29.2,00.0,39.5,32.5,14.1,0000.0,0004.05,0008.56,0003.55
2022-09-27 07:36:00,,0833.4,4.99,0.00,30.8,29.2,00.0,39.5,32.6,14.1,0000.0,0004.04,0008.78,0003.56
2022-09-27 07:37:00,,0833.5,5.01,0.00,30.7,29.2,00.0,39.5,32.5,14.2,0000.0,0004.04,0009.31,0003.57
2022-09-27 07:38:00,,0833.5,4.99,0.00,30.7,29.2,00.0,39.5,32.5,14.1,0000.0,0004.08,0010.67,0003.57
2022-09-27 07:39:00,,0833.5,5.00,0.00,30.7,29.2,00.0,39.5,32.5,14.1,0000.0,0004.10,0011.08,0003.57
2022-09-27 07:40:00,,0833.5,5.00,0.00,30.7,29.2,00.0,39.5,32.5,14.1,0000.0,0004.13,0011.10,0003.57
2022-09-27 07:41:00,,0833.5,5.00,0.00,30.7,29.2,00.0,39.5,32.5,14.1,0000.0,0004.15,0011.07,0003.57
2022-09-27 07:42:00,,0833.5,5.00,0.00,30.7,29.2,00.0,39.5,32.5,14.1,0000.0,0004.12,0011.24,0003.56
2022-09-27 07:43:00,,0833.5,5.01,0.00,30.7,29.2,00.0,39.5,32.5,14.2,0000.0,0004.12,0011.67,0003.55
2022-09-27 07:44:00,,0833.5,4.99,0.00,30.7,29.2,00.0,39.5,32.5,14.1,0000.0,0004.13,0011.50,0003.56
2022-09-27 07:45:00,,0833.5,5.01,0.00,30.8,29.2,00.0,39.5,32.5,14.0,0000.0,0004.10,0010.71,0003.56
2022-09-27 07:46:00,,0833.5,5.01,0.00,30.8,29.2,00.0,39.5,32.5,14.2,0000.0,0004.11,0010.66,0003.55
2022-09-27 07:47:00,,0833.5,4.99,0.00,30.8,29.2,00.0,39.5,32.5,14.1,0000.0,0004.12,0010.44,0003.56
2022-09-27 07:48:00,,0833.5,5.01,0.00,30.8,29.2,00.0,39.5,32.5,14.2,0000.0,0004.14,0010.03,0003.55
2022-09-27 07:49:00,,0833.5,4.99,0.00,30.8,29.2,00.0,39.5,32.6,14.2,0000.0,0004.12,0008.84,0003.55
2022-09-27 07:50:00,,0833.5,5.00,0.00,30.8,29.2,00.0,39.5,32.6,14.2,0000.0,0004.11,0008.49,0003.54
2022-09-27 07:51:00,,0833.5,4.99,0.00,30.8,29.3,00.0,39.5,32.6,14.2,0000.0,0004.10,0008.60,0003.54
2022-09-27 07:52:00,,0833.6,5.01,0.00,30.8,29.3,00.0,39.5,32.6,14.1,0000.0,0004.08,0008.76,0003.55
2022-09-27 07:53:00,,0833.6,4.99,0.00,30.8,29.3,00.0,39.5,32.6,14.1,0000.0,0004.10,0008.57,0003.56
2022-09-27 07:54:00,,0833.5,5.02,0.00,30.8,29.2,00.0,39.5,32.6,14.0,0000.0,0004.11,0008.17,0003.56
2022-09-27 07:55:00,,0833.5,4.99,0.00,30.8,29.2,00.0,39.5,32.6,14.0,0000.0,0004.13,0008.12,0003.56
2022-09-27 07:56:00,,0833.5,5.01,0.00,30.8,29.3,00.0,39.5,32.6,14.0,0000.0,0004.15,0008.54,0003.55
2022-09-27 07:57:00,,0833.5,5.00,0.00,30.8,29.2,00.0,39.5,32.6,14.0,0000.0,0004.17,0009.06,0003.56
2022-09-27 07:58:00,,0833.5,4.99,0.00,30.8,29.2,00.0,39.5,32.6,14.0,0000.0,0004.18,0009.33,0003.56
2022-09-27 07:59:00,,0833.5,5.00,0.00,30.8,29.2,00.0,39.6,32.6,14.0,0000.0,0004.18,0009.28,0003.57
